This demonstration page uses our WeatherBlox Daily Observations layout. Learn more.

Left ArrowRight Arrow

39.29038, -76.61219

Hourly Observations for May 27, 2021

Temp ( °F °C ) Dew Point ( °F °C ) Humidity (%) Winds ( mph kmh ) Pressure ( in mb ) Visibility ( mi km ) Precip ( " mm )
12:54 am 00:54 Partly Cloudy 69 20.6 65 18.3 87 87 N N/A 29.95 1014 10 16 N/A
1:54 am 01:54 Mostly Cloudy 69 20.6 66 18.9 90 90 N N/A 29.96 1014 10 16 N/A
2:54 am 02:54 Partly Cloudy 66 18.9 63 17.2 90 90 W 6 9 29.96 1014 10 16 N/A
3:54 am 03:54 Mostly Cloudy 68 20 62 16.7 81 81 W 3 6 29.96 1015 10 16 N/A
4:54 am 04:54 Mostly Cloudy 68 20 63 17.2 84 84 WSW 5 7 29.97 1015 10 16 N/A
5:54 am 05:54 Partly Cloudy 66 18.9 62 16.7 87 87 WNW 3 6 29.98 1015 10 16 N/A
6:54 am 06:54 Mostly Sunny 68 20 63 17.2 84 84 W 3 6 29.99 1016 10 16 N/A
7:54 am 07:54 Mostly Sunny 73 22.8 64 17.8 74 74 WNW 7 11 30.00 1016 10 16 N/A
8:54 am 08:54 Mostly Sunny 76 24.4 63 17.2 64 64 WNW 9 15 30.01 1016 10 16 N/A
9:54 am 09:54 Mostly Cloudy 79 26.1 62 16.7 56 56 NNW 8 13 30.02 1017 10 16 N/A
10:54 am 10:54 Mostly Cloudy 80 26.7 62 16.7 54 54 undefined N/A 30.02 1017 10 16 N/A
11:54 am 11:54 Mostly Cloudy 82 27.8 61 16.1 49 49 WNW 6 9 30.02 1017 10 16 N/A
12:54 pm 12:54 Mostly Cloudy 82 27.8 60 15.6 47 47 VRB 7 11 30.01 1016 10 16 N/A
1:54 pm 13:54 Partly Cloudy 84 28.9 55 12.8 37 37 W 8 13 29.98 1015 10 16 N/A
2:54 pm 14:54 Partly Cloudy 84 28.9 55 12.8 37 37 WNW 8 13 29.96 1015 10 16 N/A
3:54 pm 15:54 Partly Cloudy 84 28.9 56 13.3 38 38 NW 9 15 29.95 1014 10 16 N/A
4:54 pm 16:54 Mostly Cloudy 85 29.4 56 13.3 37 37 W 12 19 29.95 1014 10 16 N/A
5:54 pm 17:54 Mostly Cloudy 83 28.3 53 11.7 36 36 WNW 6 9 29.94 1014 10 16 N/A
6:54 pm 18:54 Mostly Cloudy 83 28.3 55 12.8 38 38 NNW 6 9 29.94 1014 10 16 N/A
7:54 pm 19:54 Mostly Cloudy 80 26.7 55 12.8 42 42 N N/A 29.95 1014 10 16 N/A
8:54 pm 20:54 Mostly Cloudy 77 25 56 13.3 48 48 N N/A 29.96 1014 10 16 N/A
9:54 pm 21:54 Mostly Cloudy 70 21.1 59 15 68 68 VRB 3 6 29.97 1015 10 16 N/A
10:54 pm 22:54 Partly Cloudy 67 19.4 58 14.4 73 73 NW 5 7 29.98 1015 10 16 N/A
11:54 pm 23:54 Mostly Cloudy 68 20 56 13.3 65 65 NW 5 7 29.98 1015 10 16 N/A

Powered by AerisWeather